#timestamp,LO_Frequency,Hit,StdDev 
1542880815.8,286046996.4,N
1542880865.7,286046994.1,E
1542880875.6,286046997.6,N
1542880895.5,286046999.0,P
1542880915.3,286046995.5,P
1542880935.1,286046995.8,N
1542880955.9,286046995.9,N
1542880975.7,286046993.5,Y
1542880995.5,286046994.9,P
1542881015.4,286046995.4,P
1542881065.3,286046996.9,E
1542881075.2,286046998.6,N
1542881095.0,286046999.9,P
1542881095.9,286046999.9,N
1542881115.8,286047002.3,Y
1542881135.6,286046999.7,P
1542881155.4,286046998.1,P
1542881175.3,286046998.8,N
1542881195.1,286046997.9,Y
1542881215.8,286046997.3,P
1542881235.7,286046997.0,P
1542881255.5,286046999.1,N
1542881275.4,286047001.8,N
1542881295.2,286047001.2,N
1542881315.0,286047001.1,N
1542881315.9,286047001.1,N
1542881335.8,286046998.8,N
1542881355.6,286046997.3,N
1542881375.4,286047000.6,N
1542881395.3,286046997.2,N
1542881415.1,286046997.5,N
1542881435.9,286046995.5,N
1542881455.7,286046993.3,Y
1542881475.5,286046995.0,P
1542881495.4,286046993.6,P
1542881515.2,286046992.9,P
1542881535.0,286046990.7,Y
1542881535.9,286046990.7,P
1542881555.8,286046997.3,N
1542881575.6,286046997.5,N
1542881595.5,286046995.4,N
1542881615.3,286046997.3,N
1542881635.1,286046997.9,N
1542881655.9,286046998.6,N
1542881675.7,286046998.1,N
1542881695.5,286046998.3,N
1542881715.4,286046999.9,N
1542881735.2,286046999.9,N
1542881755.0,286047001.1,N
1542881755.9,286047001.1,N
1542881775.8,286047002.6,N
1542881795.6,286046998.3,N
1542881815.5,286046998.5,N
1542881835.3,286046998.5,N
1542881855.1,286046999.8,N
1542881875.9,286046998.2,N
1542881895.7,286046998.1,N
1542881915.5,286046998.5,N
1542881935.4,286046996.9,N
1542881955.2,286046995.5,N
1542881975.0,286046995.4,N
1542881976.0,286046995.4,N
1542881995.8,286046995.0,N
1542882015.6,286046996.3,N
1542882035.5,286046993.9,N
1542882055.3,286046993.8,N
1542882075.1,286046995.4,N
1542882095.9,286046994.6,N
1542882115.7,286046994.4,N
1542882135.5,286046993.4,N
1542882155.4,286046995.1,N
1542882175.2,286046997.9,N
1542882195.1,286046996.7,N
1542882196.0,286046996.7,N
1542882215.8,286046998.5,N
1542882235.6,286046998.9,N
1542882255.5,286046998.6,N
1542882275.3,286046998.1,N
1542882295.1,286046999.2,N
1542882315.9,286046998.4,N
1542882335.7,286047000.5,N
1542882355.6,286047002.0,N
1542882375.4,286047003.2,N
1542882395.2,286047003.8,N
1542882415.1,286047003.8,N
1542882416.0,286047003.8,N
1542882435.8,286047007.0,N
1542882455.6,286047004.6,N
1542882475.5,286047005.7,N
1542882495.3,286047004.0,N
1542882515.2,286047000.2,N
1542882535.9,286046998.1,N
1542882555.7,286047001.2,N
1542882575.6,286046999.0,N
1542882595.4,286046996.8,N
1542882615.3,286046994.9,N
1542882635.1,286046994.9,N
1542882636.0,286046994.9,N
1542882655.8,286046996.1,N
1542882675.7,286046998.9,N
1542882695.5,286046998.0,N
1542882715.3,286046995.5,N
1542882735.2,286046996.2,N
1542882755.0,286046996.1,N
1542882755.9,286046996.1,N
1542882775.8,286046997.4,N
1542882795.6,286046993.6,N
1542882815.4,286046992.8,N
1542882835.3,286046990.5,N
1542882855.1,286046988.5,N
1542882875.8,286046990.5,N
1542882895.7,286046990.1,N
1542882915.5,286046992.6,N
1542882935.3,286046993.0,N
1542882955.2,286046994.4,N
1542882975.0,286046992.1,N
1542882975.9,286046992.1,N
1542882995.8,286046994.2,N
1542883015.6,286046998.0,N
1542883035.4,286046993.8,N
1542883055.3,286046997.5,N
1542883075.1,286046995.5,N
1542883095.8,286046993.4,N
1542883115.7,286046991.7,Y
1542883135.5,286046999.5,P
1542883155.4,286046997.8,N
1542883175.2,286046994.9,N
1542883195.0,286046993.5,Y
1542883195.9,286046993.5,P
1542883215.8,286047001.0,N
1542883235.6,286047000.4,N
1542883255.5,286047000.6,N
1542883275.3,286047000.3,N
1542883295.1,286047000.3,N
1542883315.9,286047000.3,N
1542883335.7,286047000.0,N
1542883355.5,286047000.0,N
1542883375.4,286046998.4,N
1542883395.2,286047000.5,N
1542883415.1,286047001.1,N
1542883416.0,286047001.1,N
1542883435.8,286046998.7,N
1542883455.6,286047000.5,N
1542883475.5,286047002.7,N
1542883495.3,286047001.0,N
1542883515.1,286046995.8,N
1542883535.9,286046991.8,Y
1542883555.7,286046996.0,P
1542883575.6,286046994.7,N
1542883595.4,286046992.3,P
1542883615.2,286046993.0,N
1542883635.1,286046992.7,N
1542883636.0,286046992.7,N
1542883655.8,286046991.7,Y
1542883675.6,286046996.6,P
1542883695.5,286046998.3,N
1542883715.3,286047000.2,N
1542883735.2,286047004.3,N
1542883755.9,286047005.6,N
1542883775.7,286047004.5,N
1542883795.6,286047008.9,N
1542883815.4,286047008.1,N
1542883835.2,286047008.0,N
1542883855.1,286047009.7,N
1542883856.0,286047009.7,N
1542883875.8,286047010.8,N
1542883895.7,286047009.3,N
1542883915.5,286047006.1,N
1542883935.3,286047007.4,N
1542883955.2,286047005.5,N
1542883975.0,286047005.9,N
1542883975.9,286047005.9,N
1542883995.8,286047001.9,N
1542884015.6,286047001.8,N
1542884035.4,286047001.3,N
1542884055.3,286047006.0,N
1542884075.1,286047003.6,N
1542884095.8,286047002.9,N
1542884115.7,286047005.3,N
1542884135.5,286047007.3,N
1542884155.4,286047004.6,N
1542884175.2,286047005.3,N
1542884195.0,286047005.2,N
1542884195.9,286047005.2,N
1542884215.8,286047005.3,N
1542884235.6,286047001.5,N
1542884255.4,286047002.4,N
1542884275.3,286047004.1,N
1542884295.1,286047001.5,N
1542884315.9,286046999.7,N
1542884335.7,286047002.1,N
1542884355.5,286047002.4,N
1542884375.4,286047002.2,N
1542884395.2,286047000.5,N
